Regional Weather Roundup
Issued by NWS

Home | Current Version | Previous Version | Text Only | Print | Product List | Glossary Off
Versions: 1 2 3 4 5 6 7 8 9 10 11 12 13 14 15 16 17 18 19 20 21 22 23 24 25 26 27 28 29 30 31 32 33 34 35 36 37 38 39 40 41 42 43 44 45 46 47 48 49 50

000
ASUS45 KABQ 271001
RWRNM
NEW MEXICO REGIONAL WEATHER ROUNDUP
NATIONAL WEATHER SERVICE ALBUQUERQUE NM
400 AM MDT THU AUG 27 2015

NOTE: "FAIR" MEANS FEW OR NO CLOUDS BELOW 12,000 FEET AGL WITH NO
       SIGNIFICANT WEATHER OR OBSTRUCTIONS TO VISION.

      THIS PRODUCT IS RELEASED AS TWO VERSIONS.  ONE VERSION NEAR
      THE TOP OF THE HOUR CONTAINING PRELIMINARY DATA FROM ALBUQUERQUE
      AND OTHER STATIONS.  A FINAL VERSION WITH ADDITIONAL DATA IS
      ISSUED ABOUT 10 MINUTES AFTER THE HOUR.

NMZ501-503-504-510>518-271100-
NORTHWEST PLATEAU/NORTHCENTRAL MOUNTAINS

CITY           SKY/WX    TMP DP  RH WIND       PRES   REMARKS
FARMINGTON     CLEAR     59  57  93 E5        30.32S
SANTA FE       CLOUDY    59  56  89 NE6       30.37F
TAOS           CLOUDY    55  46  71 SE6       30.43F

$$
NMZ402-403-502-505>509-271100-
WESTCENTRAL MOUNTAINS/SOUTHWEST MOUNTAINS

CITY           SKY/WX    TMP DP  RH WIND       PRES   REMARKS
GALLUP         CLOUDY    59  55  87 SE9       30.38F
SILVER CITY      N/A     64  59  82 NE3       30.30F

$$
NMZ407-409-411-412-271100-
SOUTHERN DESERTS

CITY           SKY/WX    TMP DP  RH WIND       PRES   REMARKS
DEMING         MOCLDY    75  54  47 NE13      30.20F
HOLLOMAN AFB   MOCLDY    72  56  58 NE3       30.20S
ALAMOGORDO     MOCLDY    70  54  56 SE5       30.22S
T OR C         MOCLDY    70  56  61 N3        30.27S

$$
NMZ519>523-271100-
CENTRAL VALLEYS/CENTRAL HIGHLANDS

CITY           SKY/WX    TMP DP  RH WIND       PRES   REMARKS
ALBUQUERQUE    LGT RAIN  66  60  81 S12       30.34S
DOUBLE EAGLE   CLOUDY    61  59  93 S3        30.37S
MORIARTY ARPT  RAIN      60  57  87 CALM      30.40S
CLINES CORNERS CLOUDY    58  54  86 NW6       30.42S
BELEN          LGT RAIN  64  61  90 CALM      30.35S
SOCORRO        NOT AVBL

$$
NMZ524>526-539-540-271100-
SOUTHCENTRAL MOUNTAINS

CITY           SKY/WX    TMP DP  RH WIND       PRES   REMARKS
RUIDOSO        NOT AVBL

$$
NMZ527>531-271100-
NORTHEAST HIGHLANDS/NORTHEAST PLAINS

CITY           SKY/WX    TMP DP  RH WIND       PRES   REMARKS
LAS VEGAS      MOCLDY    58  50  75 SW10      30.38F
RATON          PTCLDY    61  52  72 CALM      30.28F
CLAYTON        MOCLDY    68  54  60 SW10      30.20F

$$
NMZ532>537-271100-
EASTCENTRAL PLAINS

CITY           SKY/WX    TMP DP  RH WIND       PRES   REMARKS
TUCUMCARI      PTCLDY    70  55  59 SW10      30.19F
CANNON AFB     PTCLDY    71  55  58 W9        30.24R
CLOVIS AIRPORT PTCLDY    64  54  68 W5        30.24S

$$
NMZ028-029-538-271100-
SOUTHEAST PLAINS

CITY           SKY/WX    TMP DP  RH WIND       PRES   REMARKS
ROSWELL        PTCLDY    69  54  58 CALM      30.19S
ARTESIA        CLEAR     70  55  60 CALM      30.19S
CARLSBAD       CLEAR     72  57  59 S8        30.15


$$


USA.gov is the U.S. government's official web portal to all federal, state and local government web resources and services.